ECMWFFLT2_sfc_temp_162.txt.gz
Temp
73 73 73 73 73 73 75 77 76 76 76 76 76 76 76 77 77 77 76 77 76 74 73 74 75 73 77 74 75 76 76 76 75 75 75 75 75 75 75 75 75 75 75 75 75 74 74 74 74 74 74 74 73 69 69 69 69 69 69 69 70 71
72 72 72 72 73 74 75 76 73 74 75 76 77 77 76 75 77 74 76 75 73 73 71 71 71 76 72 74 74 76 76 76 75 75 74 75 74 74 75 75 75 75 74 74 74 71 73 75 75 74 74 73 69 68 68 68 68 68 69 68 69 72
72 72 72 72 73 73 74 73 72 73 74 75 75 75 73 75 73 73 74 73 73 72 70 71 72 73 72 74 73 76 76 76 75 75 74 74 74 74 74 75 75 74 74 73 69 68 69 70 72 74 73 69 67 68 68 68 68 68 68 69 71 73
72 72 72 71 72 72 72 72 72 72 72 72 73 73 72 72 72 72 72 71 71 71 71 70 75 76 76 72 73 75 76 76 76 75 75 73 74 74 74 74 74 74 71 69 67 68 69 68 68 68 68 68 67 68 67 67 67 67 68 71 71 73
73 72 71 71 71 71 71 71 71 71 71 71 71 71 71 71 71 71 71 71 71 71 70 70 72 72 71 70 69 69 71 70 68 68 73 65 66 69 68 65 66 67 65 67 68 68 68 68 69 69 68 68 68 67 67 67 67 67 67 68 70 73
72 72 72 71 71 72 72 70 70 71 70 70 70 70 71 71 70 70 70 71 71 70 69 70 70 70 70 70 69 68 68 68 66 66 69 66 65 65 64 65 65 65 65 67 68 69 69 69 68 68 67 67 67 67 67 66 66 66 67 67 71 72
72 72 71 72 72 72 71 71 71 71 70 69 70 70 70 70 70 70 70 71 70 69 68 68 69 69 69 69 68 68 67 67 67 67 67 66 65 64 64 64 64 64 64 67 69 70 69 69 69 69 68 68 67 66 66 65 65 66 66 67 70 72
72 72 71 71 71 71 71 71 71 72 71 70 70 70 70 70 71 70 70 70 71 69 69 68 68 69 69 69 68 68 68 67 67 67 67 66 66 65 65 64 64 64 66 68 71 70 70 69 68 68 68 67 66 66 65 65 66 66 65 66 68 71
72 72 72 72 71 71 71 71 71 71 70 72 70 70 70 71 70 71 71 71 70 69 69 69 67 69 69 68 68 68 67 67 67 67 66 65 66 66 65 64 64 65 66 67 68 68 68 68 68 68 68 67 66 65 65 65 65 66 65 64 66 70
73 73 72 72 71 71 71 70 70 70 70 71 70 71 70 70 70 71 70 71 71 70 69 69 68 68 68 68 68 68 68 67 67 66 66 65 65 65 65 65 64 66 68 66 68 68 68 67 67 68 67 66 65 65 64 65 65 65 65 64 65 68
74 73 73 71 71 71 71 71 71 71 71 71 71 71 71 71 70 71 71 71 71 71 70 70 69 68 68 68 68 68 67 67 67 66 66 66 66 66 65 65 65 65 67 66 67 68 68 67 67 67 67 66 65 65 65 65 65 65 65 64 64 64
74 73 72 72 72 71 71 71 71 71 71 71 71 71 71 71 71 71 72 71 71 71 72 70 70 69 68 68 68 68 68 67 67 66 67 66 65 66 66 67 66 67 66 67 67 68 68 67 67 67 67 67 66 65 65 65 65 65 64 63 63 64
74 73 72 72 72 72 72 72 72 71 71 72 71 71 71 71 71 72 71 72 71 71 72 71 70 70 69 68 68 68 67 68 68 67 67 67 67 66 67 66 66 68 66 67 67 67 68 67 66 66 67 67 66 66 66 66 65 64 64 63 63 62
74 73 73 73 72 72 72 72 73 72 72 72 72 71 71 72 72 72 72 72 71 72 72 72 71 70 69 69 68 68 68 68 68 68 68 68 66 65 67 66 65 66 69 68 67 66 66 65 66 66 66 66 65 66 65 65 65 64 63 63 63 62
74 73 74 72 72 72 73 73 73 73 72 72 72 72 72 73 73 73 72 72 71 72 72 72 71 70 69 69 69 69 69 69 69 69 69 68 68 67 67 67 66 66 67 67 68 67 66 66 65 66 65 65 65 65 65 64 64 64 63 63 62 62
74 73 73 73 73 73 73 73 73 74 73 73 73 73 73 73 74 74 73 72 72 72 72 72 72 71 69 69 70 70 70 70 70 69 69 68 68 67 67 66 67 68 66 66 67 66 66 65 65 65 64 64 65 66 64 64 64 64 64 63 63 62
73 73 73 73 73 73 73 73 73 74 73 73 73 73 74 74 74 74 73 73 73 73 72 72 72 71 70 70 70 70 70 70 70 70 69 68 68 68 67 68 67 69 69 66 67 66 65 65 64 64 64 63 64 65 64 64 64 63 64 62 62 61
74 74 74 74 73 73 73 74 73 74 74 73 73 74 74 74 74 74 73 73 73 73 72 72 72 71 70 70 71 70 70 69 70 70 69 68 68 68 68 69 67 67 69 68 65 65 64 64 64 63 63 62 62 63 63 64 64 65 63 62 61 61
75 74 74 74 73 73 73 73 74 73 73 73 73 74 74 74 74 74 74 73 73 72 72 71 71 71 70 70 70 70 69 68 69 69 68 68 67 67 68 68 68 66 67 68 67 66 65 64 63 62 62 61 62 62 63 64 64 63 63 62 63 63
75 75 74 74 74 73 73 73 72 72 72 72 73 72 73 74 74 74 74 74 73 72 72 72 72 71 71 70 69 68 68 67 68 68 68 67 66 67 67 67 66 66 65 66 66 65 65 63 61 60 61 60 60 61 62 62 61 63 63 62 62 62
75 75 74 73 73 72 71 71 72 72 71 72 72 72 72 73 74 74 74 74 73 72 72 72 72 71 70 71 70 68 68 67 68 68 68 67 66 67 67 67 66 66 64 63 62 64 64 65 62 58 59 59 60 60 62 60 60 61 62 62 62 61
75 74 74 74 74 73 73 73 72 72 72 72 71 71 70 72 73 74 74 74 73 73 72 72 72 72 71 70 69 68 68 68 68 68 68 67 66 68 67 66 66 63 65 63 62 63 64 65 59 58 58 56 57 58 60 59 60 61 61 61 60 60
74 75 74 74 74 73 73 73 73 71 73 71 72 73 72 72 74 73 73 74 74 73 72 72 73 72 71 70 70 68 68 68 68 69 67 66 66 66 66 66 66 65 61 62 62 63 64 65 58 58 58 57 54 56 57 55 58 60 61 60 59 59
74 75 74 74 74 73 73 71 72 71 71 72 70 70 71 72 73 73 72 73 73 73 72 72 73 73 71 70 69 69 69 68 69 69 68 65 65 66 66 65 66 66 64 61 60 62 62 62 62 61 55 53 52 52 52 55 55 59 59 60 60 59
74 74 74 74 73 72 71 70 71 71 71 70 70 70 69 70 72 72 72 72 72 73 72 72 72 72 71 70 70 70 69 69 68 68 67 66 66 66 66 66 67 65 65 64 61 60 62 61 63 66 60 55 53 52 52 52 55 55 57 58 58 58
74 74 74 74 73 73 72 71 70 69 68 69 68 69 69 69 69 70 71 72 72 72 72 72 72 72 71 71 70 70 69 69 68 68 67 67 66 65 65 65 66 67 65 65 64 62 60 60 63 62 64 64 60 55 54 54 57 52 59 56 56 58
74 74 75 75 74 74 72 72 71 71 71 70 70 70 71 71 71 71 72 71 72 72 73 72 72 72 70 70 70 70 70 70 69 67 68 67 66 66 66 66 66 66 66 65 64 62 61 60 60 61 62 62 62 59 60 56 53 51 52 54 56 56
74 74 74 75 74 75 73 72 72 71 71 71 71 70 70 70 71 71 71 71 72 71 72 73 72 72 70 70 71 70 70 70 69 68 68 67 67 66 66 66 66 66 66 66 65 64 61 61 61 60 61 60 60 60 62 57 59 59 54 53 53 55
74 73 74 74 74 74 74 73 73 72 70 71 71 69 69 69 69 70 70 71 71 71 72 72 73 72 70 70 71 71 70 70 69 68 68 67 66 66 66 66 65 64 64 64 65 64 63 61 62 61 60 59 59 58 60 60 61 57 52 52 51 53
73 73 74 73 73 73 74 74 73 71 70 69 69 68 69 68 69 69 70 70 71 70 71 71 72 72 70 71 71 71 71 70 69 68 68 67 66 66 66 66 66 66 65 64 63 64 64 63 63 62 64 62 60 58 57 57 57 56 55 55 53 55
72 73 73 73 73 72 74 74 73 72 71 70 69 68 68 68 69 69 69 70 70 70 71 71 71 71 71 71 71 72 71 71 70 69 68 67 66 66 66 66 66 66 65 65 63 63 63 63 63 62 62 62 62 61 59 57 57 57 55 52 53 54
71 72 72 72 72 72 73 74 74 73 72 71 70 70 69 69 69 69 70 69 70 70 70 70 71 71 71 71 71 71 71 71 70 68 68 68 67 67 66 66 66 65 65 65 64 63 62 61 62 62 62 61 62 62 61 61 60 60 59 56 58 55
70 71 71 72 72 72 72 73 73 73 72 72 71 71 71 70 70 70 70 70 69 69 69 69 70 70 70 71 71 70 70 70 70 69 69 68 67 67 66 66 65 65 65 65 64 64 63 62 63 62 63 62 62 61 61 61 61 60 60 59 59 53
70 71 71 71 72 72 72 73 74 74 73 73 72 72 72 72 71 71 71 70 70 70 69 69 70 70 71 71 71 71 71 71 71 70 70 69 68 67 66 65 65 65 65 66 65 64 64 64 63 64 63 61 61 61 61 62 62 61 60 59 56 57
70 70 71 71 72 72 72 72 73 73 73 73 72 72 72 72 72 71 71 71 71 71 70 70 70 71 71 71 71 71 71 71 71 71 70 69 68 67 66 65 65 65 66 65 65 65 64 64 64 63 62 62 62 61 62 62 61 62 62 62 60 57
70 70 71 71 71 72 72 72 72 72 72 72 73 72 72 71 72 72 71 71 71 71 71 71 71 71 71 71 71 71 71 71 71 71 70 69 68 67 66 65 65 64 65 66 65 65 64 64 64 64 63 62 62 62 62 62 62 62 62 62 61 58
70 71 71 71 71 72 72 72 72 72 72 72 72 72 72 71 72 72 72 72 71 71 71 71 71 71 71 71 71 71 70 70 70 70 70 70 69 68 67 66 65 64 64 65 65 65 65 64 64 63 62 62 63 63 62 62 62 62 62 61 62 60

ECMWFFLT2_sfc_temp_168.txt.gz
Temp
73 74 74 74 73 74 75 76 76 76 76 76 76 76 76 76 76 76 76 76 76 75 73 74 75 74 76 74 75 75 75 75 75 75 74 74 74 74 75 75 74 74 75 74 74 74 74 74 74 73 73 72 71 69 69 69 70 70 70 71 71 72
73 74 74 74 74 74 75 75 74 74 75 75 76 76 75 74 76 73 76 75 73 73 71 71 72 76 73 74 75 75 75 75 74 74 74 74 74 74 74 74 74 74 74 74 74 73 73 74 74 73 72 71 69 68 69 69 69 69 70 70 71 72
73 74 74 74 74 74 74 73 73 74 74 75 75 75 74 74 73 72 72 72 72 71 70 71 72 73 73 75 74 75 75 75 74 74 74 74 74 74 74 74 74 74 74 74 71 70 71 72 73 73 71 69 68 68 69 68 68 69 69 70 71 73
73 74 73 73 73 73 73 73 73 73 73 73 73 73 73 73 72 72 72 71 70 70 70 70 75 75 75 73 74 76 75 75 75 74 75 73 74 74 75 74 74 74 71 69 69 70 70 70 69 68 68 68 68 68 68 68 68 68 70 71 71 73
73 73 73 73 73 72 72 72 72 72 72 72 72 72 72 72 72 72 71 70 69 70 69 70 71 72 71 71 70 71 72 71 70 70 71 67 68 69 68 68 69 68 67 68 68 68 69 68 68 68 68 68 68 68 68 68 68 68 69 70 71 72
73 73 73 72 72 73 72 72 71 71 71 72 72 71 71 71 72 72 71 71 70 69 68 69 70 69 69 69 69 69 68 68 68 68 68 67 66 66 65 65 66 66 67 68 68 68 69 68 68 68 68 68 68 68 68 68 68 68 69 70 72 72
72 72 72 73 73 72 71 72 72 72 72 71 72 71 71 72 72 72 72 71 70 69 68 68 69 69 68 68 68 68 67 67 67 67 67 67 66 65 64 65 65 66 66 68 69 69 68 68 69 69 68 68 68 68 68 68 68 68 68 69 72 72
72 72 72 72 72 72 71 72 72 72 72 72 72 71 71 71 71 72 72 71 70 69 69 68 69 69 68 68 67 67 66 66 66 66 66 66 65 64 64 64 65 64 67 68 69 69 68 68 68 69 68 68 69 68 67 68 68 67 68 68 70 72
72 72 72 72 71 72 71 72 72 71 71 72 72 72 72 71 71 72 72 71 70 68 69 69 70 69 68 67 67 66 66 66 66 66 65 65 65 64 64 64 64 65 65 67 68 68 68 68 68 68 68 68 68 67 67 66 67 67 67 67 68 71
72 72 72 71 71 71 71 71 71 71 71 71 71 72 72 71 71 72 71 72 70 68 69 70 70 70 68 68 67 66 66 66 65 65 65 65 65 65 64 63 64 64 65 67 68 69 69 67 67 68 68 67 67 67 66 66 66 66 67 67 67 71
72 72 72 71 71 71 71 71 71 72 71 70 71 71 71 71 71 71 72 71 70 69 69 70 70 70 69 68 67 67 66 65 65 65 65 65 64 64 64 64 64 64 64 66 67 70 69 68 67 67 67 67 66 65 65 66 66 66 67 66 67 68
72 72 72 71 71 71 71 71 71 71 70 70 71 71 71 71 71 71 72 71 70 69 69 70 70 70 69 68 68 67 66 65 65 65 65 64 64 64 64 64 64 64 64 66 68 69 69 68 66 66 67 66 66 65 65 66 66 66 66 66 65 67
72 71 71 71 71 71 71 71 71 71 70 70 71 71 70 70 71 71 71 71 70 69 69 69 69 69 70 69 68 68 67 66 66 65 65 64 64 63 63 63 63 64 63 66 67 67 68 68 66 66 66 65 66 65 66 66 65 65 65 65 65 65
72 71 71 71 71 71 71 71 71 71 71 71 71 70 70 70 70 71 71 70 70 69 69 69 69 70 70 69 68 68 68 67 66 66 65 64 63 63 63 63 63 63 65 65 65 66 67 66 66 66 66 65 65 65 65 65 65 65 64 65 64 65
71 71 71 71 71 71 70 70 70 70 70 70 70 70 70 69 69 70 70 70 70 69 69 68 69 69 69 69 68 68 68 68 67 66 65 65 64 63 63 63 63 63 64 64 65 66 67 66 66 65 65 65 65 64 64 64 64 64 64 64 64 65
71 70 71 71 71 71 70 70 70 71 70 69 69 69 69 69 69 68 69 69 70 70 69 68 68 69 69 69 68 68 68 68 67 66 65 65 64 62 62 63 63 64 63 63 64 65 67 66 66 65 65 64 64 64 64 64 63 64 63 64 64 64
70 70 70 71 70 70 70 70 70 70 69 69 68 68 69 69 68 68 68 68 68 69 69 69 68 68 68 68 68 68 68 67 67 66 65 64 64 63 63 63 63 64 65 63 64 64 65 66 65 65 65 63 63 64 63 63 63 63 63 63 63 63
70 70 71 70 70 70 70 70 70 69 69 68 68 68 68 68 68 69 68 68 68 68 69 68 68 68 68 68 68 68 67 66 66 66 65 64 64 63 63 64 63 63 65 64 64 64 64 65 65 64 64 63 62 63 63 63 63 64 63 62 62 62
70 70 69 69 69 69 69 70 69 69 69 68 68 68 68 68 68 69 68 68 68 68 69 68 68 68 67 67 67 67 66 66 66 66 65 64 63 63 63 63 64 63 65 65 65 65 65 65 64 64 63 63 62 62 62 63 64 63 62 63 63 63
69 69 69 68 69 68 68 68 68 68 68 68 68 68 68 69 69 69 69 69 69 68 69 69 68 68 68 67 67 67 66 66 66 66 65 64 63 63 63 63 63 64 63 64 65 65 65 64 64 63 63 62 63 62 62 63 62 62 63 62 63 63
68 68 68 67 67 68 67 67 68 67 67 67 68 68 68 69 69 69 69 69 69 69 69 69 69 68 67 68 67 67 66 66 66 66 65 65 64 64 64 64 64 65 63 62 62 64 64 65 62 60 61 61 61 62 63 63 61 61 62 62 62 62
67 68 68 67 67 67 68 68 68 68 68 68 68 67 67 68 69 69 69 70 69 69 69 69 69 68 68 68 67 66 66 66 66 66 66 66 65 65 65 64 64 63 64 63 61 63 63 64 60 59 59 58 59 59 62 62 61 61 61 61 61 61
66 67 67 68 67 67 68 69 69 69 69 68 70 70 69 70 70 69 69 70 70 70 69 69 70 69 68 68 68 67 67 66 66 67 66 65 64 64 64 64 64 64 61 61 61 63 63 65 59 59 60 59 55 56 59 59 60 61 61 61 61 60
65 66 67 68 68 68 69 70 70 70 70 70 68 70 70 70 70 69 69 70 70 70 70 69 70 70 69 68 68 68 67 66 66 67 66 64 63 63 63 63 64 64 64 60 60 61 64 61 62 62 58 55 54 55 53 56 57 59 60 60 60 60
66 66 67 67 68 67 68 68 69 70 70 69 69 68 68 67 69 69 69 69 70 71 70 70 70 70 70 69 68 68 68 67 67 66 66 65 64 64 64 64 65 64 64 62 60 60 62 62 64 65 61 55 55 55 55 55 56 57 58 59 59 59
66 66 66 67 68 67 66 66 66 64 62 65 65 66 65 66 67 67 68 70 71 71 71 70 70 70 70 70 68 68 68 68 67 67 66 66 66 64 64 64 66 66 64 64 63 61 61 61 63 63 62 61 61 59 56 56 58 56 57 58 58 60
67 66 67 67 68 68 66 66 67 66 66 67 66 67 69 70 69 70 70 70 70 70 71 70 70 70 70 70 69 68 68 68 68 67 67 66 65 65 65 65 66 65 66 64 64 62 62 61 62 62 62 61 62 59 60 58 57 53 55 57 58 57
67 67 67 68 68 68 67 66 65 66 67 68 68 68 69 70 70 70 70 69 70 70 70 71 70 70 70 70 70 68 68 68 68 68 68 67 66 66 65 65 65 66 66 65 64 64 62 62 61 62 62 59 59 61 60 57 60 62 57 55 57 58
67 67 67 68 68 68 68 66 66 67 66 69 70 70 70 70 69 70 69 69 69 70 70 70 71 70 70 70 70 69 68 68 68 68 68 67 67 66 66 64 63 63 64 64 65 65 64 62 63 63 61 58 58 59 59 59 61 59 58 58 55 55
67 68 68 68 68 68 69 68 67 67 68 69 70 70 70 69 69 69 68 68 69 69 69 69 70 70 70 70 70 69 69 69 69 68 68 67 66 66 66 65 65 65 64 64 64 64 64 64 64 63 64 61 60 58 60 60 59 58 57 60 60 57
68 70 70 69 69 68 69 69 68 69 69 70 70 70 68 68 68 68 68 68 68 69 69 69 69 69 70 70 70 70 69 69 69 69 68 67 66 66 66 65 65 65 64 64 63 63 63 64 64 63 63 63 63 63 62 62 60 59 60 57 57 57
68 69 70 69 69 69 70 70 70 70 70 70 71 70 68 68 68 68 68 68 69 69 68 69 69 69 69 69 69 69 69 69 68 68 68 67 67 66 66 66 65 64 64 64 64 63 63 62 62 62 62 63 63 63 63 64 62 61 61 59 60 59
68 70 70 70 69 70 70 70 71 71 71 71 71 71 69 69 70 69 69 69 68 68 68 68 68 68 69 69 69 68 68 67 67 67 68 67 67 66 66 65 65 65 64 64 63 64 62 62 63 62 63 62 63 62 63 63 62 61 61 60 61 59
69 70 71 71 71 70 70 71 71 72 72 72 71 71 71 70 70 70 70 69 69 69 69 68 69 68 70 69 69 69 68 68 68 68 67 67 67 66 66 65 65 64 64 64 64 63 64 63 63 64 63 61 61 62 62 62 62 60 60 60 59 60
69 70 70 70 71 71 71 72 72 72 72 72 72 71 71 71 71 70 70 70 70 70 70 70 70 70 70 69 69 69 68 68 68 67 67 67 67 66 66 66 65 65 65 64 64 63 63 63 62 62 62 62 62 62 62 62 61 61 62 63 62 60
69 69 69 70 70 71 71 72 72 72 72 72 72 72 71 71 71 71 71 71 70 71 71 71 70 70 69 69 68 68 68 68 68 68 67 67 66 66 66 65 65 65 64 65 64 63 63 63 63 62 62 62 62 62 63 62 62 61 62 62 62 61
67 68 67 68 68 69 69 69 71 72 72 71 71 71 71 71 71 71 71 71 70 71 71 70 70 70 69 69 69 69 68 68 68 67 67 67 66 66 66 66 65 64 64 65 64 64 63 63 63 62 62 62 62 63 62 63 62 62 62 62 63 62

ECMWFFLT2_sfc_temp_174.txt.gz
Temp
85 85 84 83 81 82 80 77 77 77 77 77 77 77 77 76 77 77 78 78 78 81 82 82 80 84 77 81 77 75 76 75 75 76 76 76 76 76 76 75 75 75 75 74 74 73 74 74 74 74 74 75 74 81 83 83 82 82 83 83 81 80
84 84 86 83 82 81 80 79 81 79 79 78 78 77 79 81 79 81 78 80 82 83 84 84 83 81 82 81 79 75 75 75 75 76 76 76 75 75 75 75 75 75 74 74 74 81 78 75 74 74 75 74 79 84 82 82 83 84 83 83 80 76
84 83 83 83 83 82 81 82 83 81 80 79 79 81 82 82 84 84 83 84 83 84 85 86 84 84 85 79 79 76 75 75 76 76 76 76 75 75 75 75 75 75 74 73 81 84 81 81 80 74 75 79 84 83 82 82 83 83 83 82 81 74
83 84 84 82 82 81 81 82 83 82 81 80 81 83 84 84 85 84 84 83 84 85 85 85 83 81 81 82 79 76 75 75 76 76 76 77 75 76 75 74 74 74 76 78 82 85 87 86 84 82 82 83 84 82 82 83 84 83 83 81 81 73
84 82 80 80 79 80 80 81 82 82 81 82 82 83 85 85 84 85 85 85 87 84 85 85 83 83 84 85 84 82 80 82 82 81 78 83 83 81 80 83 81 79 85 87 88 85 86 84 83 84 83 84 83 82 82 83 83 83 81 80 78 73
82 81 80 79 79 80 79 80 81 81 81 82 82 83 85 85 85 84 86 87 86 83 84 85 83 83 84 85 85 84 84 85 85 84 84 85 85 83 85 85 85 87 88 87 86 85 84 83 83 83 84 83 82 81 82 83 83 82 81 80 77 73
81 80 79 80 80 81 80 81 81 82 82 83 84 84 85 85 85 84 85 85 84 83 84 85 83 83 83 85 84 85 86 86 86 85 86 87 85 85 86 86 86 86 87 87 86 86 85 84 84 85 83 84 83 82 83 83 83 82 82 80 77 73
81 79 80 81 80 80 81 82 82 82 82 83 84 84 86 85 84 84 84 85 84 84 84 85 83 83 84 84 84 85 86 86 86 87 87 87 85 86 86 86 85 86 87 87 86 85 85 85 83 83 83 82 82 82 82 83 83 83 83 80 79 74
82 80 80 80 79 80 81 82 83 82 82 82 82 84 85 84 84 84 84 85 84 83 84 84 83 83 84 83 84 84 86 86 86 86 86 86 86 84 84 85 85 86 86 85 85 83 84 83 82 82 82 82 82 81 81 82 83 85 84 82 80 76
80 80 80 79 78 79 80 81 82 83 84 82 82 83 85 85 84 85 84 84 84 84 84 85 83 84 84 83 84 83 84 85 86 86 86 84 85 84 84 85 85 86 87 84 84 83 83 83 82 82 82 81 80 80 81 82 84 85 85 83 79 77
82 81 82 80 79 79 80 81 82 84 83 82 82 82 84 85 85 85 85 83 84 84 83 84 84 84 83 83 82 82 82 84 84 85 84 85 85 85 85 84 85 85 84 85 83 84 84 82 82 83 81 81 80 80 82 83 85 84 86 82 80 79
83 81 80 81 79 79 79 81 83 83 83 82 81 82 83 85 84 85 85 83 82 83 83 84 83 83 82 81 82 81 81 82 83 85 84 85 84 85 85 87 86 85 84 84 82 82 83 82 81 82 82 81 81 81 83 84 84 85 86 84 82 81
82 79 80 80 80 80 80 82 83 84 84 84 80 80 83 84 83 84 83 82 82 83 82 83 82 81 82 81 81 81 81 80 81 83 83 84 84 83 84 84 83 84 83 84 81 80 82 81 80 81 81 81 80 82 84 85 83 82 83 84 83 82
80 78 79 80 79 79 80 81 83 84 84 83 81 80 81 82 84 84 83 82 82 83 82 83 83 81 82 82 80 79 80 81 83 82 81 81 81 83 83 83 82 83 82 83 81 80 80 79 80 80 80 81 81 82 83 85 83 82 82 84 83 81
78 77 79 79 78 78 80 81 83 83 84 82 81 80 80 82 83 84 84 83 82 82 82 83 82 81 81 82 80 79 79 82 83 83 82 82 82 82 82 81 83 82 82 82 84 81 80 79 79 80 80 80 81 82 82 82 82 82 83 83 82 81
78 77 78 78 78 78 78 80 82 82 83 82 82 80 80 81 83 85 84 83 81 81 81 82 82 82 80 82 81 80 80 81 81 82 83 82 81 81 82 81 82 82 80 83 83 81 80 79 78 79 80 80 79 79 80 81 81 81 83 82 83 80
77 76 77 78 78 77 77 79 80 80 81 81 82 82 83 83 83 83 84 84 81 80 81 81 81 81 80 80 81 80 81 80 79 80 80 80 81 82 81 80 80 81 81 81 84 84 81 81 78 78 79 79 78 78 79 80 80 82 82 81 81 81
76 77 79 78 77 77 77 79 79 81 80 80 81 83 84 84 83 83 83 83 82 81 81 82 81 81 80 81 81 81 80 79 79 78 79 79 79 82 81 79 78 80 81 81 81 81 80 82 80 78 78 78 78 78 79 79 80 80 81 80 80 79
69 75 77 78 78 77 77 78 80 79 79 79 80 81 81 82 83 83 82 82 83 81 80 81 81 81 79 81 81 81 80 79 78 77 77 78 78 79 79 78 78 78 80 82 82 81 81 80 78 77 76 76 77 77 78 79 80 80 81 80 80 81
69 71 73 75 77 77 77 77 77 78 79 80 80 79 79 80 81 82 82 80 81 80 80 80 82 81 80 80 80 81 79 79 79 78 77 76 78 78 76 76 77 79 78 81 83 82 81 79 78 74 73 74 76 77 78 78 78 79 79 79 80 80
67 70 70 69 74 76 76 75 77 77 77 78 80 80 79 79 80 82 82 81 81 80 80 80 81 81 79 79 79 80 79 79 79 78 77 77 78 79 78 78 78 78 77 78 79 81 79 79 75 70 71 72 72 74 75 76 76 77 78 79 79 78
68 70 71 71 74 75 77 78 78 78 78 79 79 79 79 79 79 81 81 81 81 80 80 80 81 81 80 79 78 79 79 79 78 78 78 79 78 78 78 78 78 77 79 78 77 80 79 78 72 70 67 67 69 71 72 73 74 76 77 78 78 77
71 70 71 72 72 74 76 78 79 79 79 79 81 80 81 81 81 80 79 80 81 80 79 80 81 81 80 79 79 79 79 79 79 79 77 77 77 76 76 77 77 77 76 79 78 79 77 78 73 74 73 69 65 64 68 69 73 75 76 76 77 76
72 72 71 71 71 73 76 78 79 80 80 80 78 79 79 80 79 79 78 79 80 79 79 80 83 84 82 80 79 80 80 80 79 79 78 77 77 76 76 76 77 77 78 75 78 77 77 77 79 76 68 69 70 70 68 67 68 72 75 74 74 75
73 72 72 73 72 72 73 74 76 77 78 77 78 77 76 76 77 78 78 78 78 80 79 80 82 83 84 81 80 80 80 80 79 79 79 79 77 77 77 77 78 77 77 76 76 75 74 75 78 80 77 72 71 69 71 74 73 73 75 73 73 74
75 74 74 74 73 73 72 71 71 71 70 71 70 71 72 73 75 75 75 77 79 80 80 79 81 83 84 82 80 80 80 80 79 79 79 79 79 78 78 78 78 78 77 78 77 75 72 74 77 78 80 81 80 75 74 76 75 69 74 75 74 76
76 76 76 75 74 73 72 72 72 72 73 73 72 73 76 77 76 77 77 76 77 78 80 79 80 83 83 83 81 81 80 81 81 79 79 79 78 77 79 80 80 79 79 78 78 74 72 73 74 78 79 79 77 78 81 77 72 74 68 73 77 75
76 77 77 76 74 74 72 72 72 73 74 74 75 75 75 76 77 77 75 75 76 78 79 80 80 83 84 84 82 81 81 80 81 81 80 79 78 79 79 79 78 79 79 79 77 76 74 75 73 74 78 77 76 79 81 79 80 77 74 68 68 77
75 76 77 77 74 74 73 73 73 73 72 74 75 76 76 76 76 75 74 75 76 78 78 79 81 81 82 84 82 81 81 81 80 81 81 81 80 80 78 78 77 77 77 78 78 78 77 76 76 76 75 75 77 78 80 79 79 81 75 71 68 67
74 75 76 76 74 73 73 73 72 73 72 72 74 75 76 75 75 75 74 74 75 76 77 77 79 82 81 84 83 82 82 82 80 81 80 81 80 80 79 78 78 77 77 77 78 78 78 78 78 79 78 77 75 76 76 77 77 77 78 77 69 62
76 76 75 76 75 73 73 73 74 74 73 72 72 74 74 74 74 74 74 74 74 75 77 78 79 79 80 82 82 82 81 82 82 81 81 82 80 81 80 78 78 78 78 77 78 78 78 78 78 79 78 79 78 77 76 75 75 77 76 74 75 73
76 75 74 75 75 74 74 74 73 74 73 73 73 74 74 74 74 74 75 74 75 75 76 78 78 77 77 80 80 80 81 82 82 81 81 81 81 81 81 81 79 78 77 78 79 78 78 77 77 79 78 80 79 80 79 79 80 79 77 76 75 75
76 76 74 75 74 74 74 75 75 73 73 73 73 73 74 74 76 76 75 74 74 74 76 77 78 77 77 77 79 79 79 80 81 81 81 82 81 82 81 80 80 78 78 78 78 78 78 77 77 78 78 80 81 81 80 81 81 79 79 78 77 74
76 76 74 74 74 73 73 75 75 72 69 70 71 73 74 75 76 77 77 75 74 75 75 76 77 77 78 78 79 80 80 80 82 82 81 81 82 82 81 81 79 78 79 80 79 78 78 78 78 78 80 79 79 80 81 82 81 80 79 78 77 75
76 77 75 73 74 74 74 74 74 72 70 70 70 72 74 76 76 76 77 76 75 75 75 77 79 80 81 80 79 80 80 80 81 81 82 81 81 81 81 81 81 79 79 80 79 78 79 78 78 78 78 79 79 80 81 82 81 80 82 80 79 78
76 77 76 74 74 74 73 74 73 72 72 72 72 72 73 75 76 77 77 76 76 76 75 77 79 81 81 81 79 80 80 80 81 81 82 81 81 81 81 79 80 80 79 82 79 78 79 79 78 78 78 79 79 80 81 81 82 81 82 81 81 80
75 77 77 76 75 75 74 73 72 72 73 73 73 72 73 74 75 77 77 76 74 76 76 76 77 80 81 81 80 80 80 80 80 80 80 80 80 80 79 79 79 80 79 81 79 79 79 79 79 79 78 78 79 80 81 81 81 81 81 81 81 81

ECMWFFLT2_sfc_temp_180.txt.gz
Temp
81 80 79 79 78 77 77 77 77 77 77 77 77 77 77 77 77 77 77 77 77 78 77 77 77 78 77 77 77 76 76 76 76 76 76 76 76 76 76 76 75 75 75 75 74 74 74 74 74 74 75 75 75 74 75 79 77 75 74 74 73 73
80 80 81 79 78 77 77 77 76 76 76 77 77 77 77 77 78 77 77 77 77 78 78 77 77 78 77 77 77 76 76 76 76 76 76 76 76 76 76 75 75 75 75 74 74 74 74 74 74 74 75 75 75 72 76 77 76 75 74 73 73 74
82 81 80 80 79 77 77 77 77 77 77 77 77 77 77 78 78 78 78 78 78 78 79 79 78 78 79 78 77 76 76 76 76 76 76 76 76 76 76 75 75 75 75 74 74 76 76 75 74 75 74 75 73 73 78 77 75 74 73 73 73 74
82 82 81 80 79 78 77 78 77 77 77 76 77 78 78 78 79 79 78 78 78 79 80 78 80 80 79 77 76 76 76 76 76 76 76 76 76 76 75 75 75 75 74 75 75 75 77 76 76 75 75 71 72 75 78 76 75 73 73 75 74 74
82 82 82 80 79 78 78 78 78 78 77 77 77 77 77 78 78 79 79 78 80 79 80 79 78 78 77 77 76 75 75 75 75 75 76 75 75 76 75 76 75 74 75 76 77 75 75 75 75 75 74 73 72 77 77 76 74 73 72 71 73 73
83 83 82 81 80 79 78 78 78 78 77 77 76 77 77 78 78 78 79 80 79 78 78 79 77 78 78 77 76 76 76 76 77 76 76 76 76 75 76 77 76 75 76 77 78 77 75 73 73 73 74 72 74 75 77 76 74 73 71 70 73 73
82 82 82 83 81 79 79 79 79 78 77 77 77 77 78 78 78 78 79 79 78 78 78 79 78 78 78 78 77 77 78 78 78 77 77 78 78 77 77 78 77 76 78 78 80 79 77 76 76 76 76 74 76 77 76 76 74 73 72 71 73 73
82 82 82 83 81 79 79 79 79 78 78 78 78 78 78 78 78 78 79 79 79 79 79 79 78 77 78 78 77 78 78 79 79 79 79 80 79 78 78 79 78 79 79 80 81 80 79 77 74 77 78 78 78 77 76 76 75 74 72 71 72 73
78 82 81 82 81 80 80 80 79 79 78 78 78 79 79 79 79 79 79 80 80 78 79 79 78 79 79 78 78 78 79 79 80 80 80 79 80 78 78 79 78 80 79 79 79 79 80 81 78 79 79 79 78 77 76 76 75 75 74 71 71 72
75 80 79 81 80 80 80 79 79 79 79 78 78 79 79 79 79 80 79 80 80 79 79 79 78 79 79 78 78 78 78 79 79 79 80 78 79 79 78 79 79 81 83 80 80 80 79 80 80 79 78 77 77 77 76 78 77 76 74 72 70 71
70 70 72 77 79 79 80 79 79 80 80 79 79 79 80 80 80 80 80 79 80 80 79 79 79 79 78 78 78 78 78 78 79 79 79 80 79 79 78 78 79 79 79 80 79 79 79 79 80 81 78 78 77 77 78 78 78 76 74 72 71 71
70 69 70 71 75 79 79 80 80 80 80 80 79 79 80 80 80 80 80 79 79 80 80 79 79 79 79 78 78 78 78 78 79 79 80 80 79 79 79 82 81 80 79 79 79 79 78 77 78 79 80 78 78 77 77 77 78 76 74 72 72 72
71 70 70 71 71 74 79 81 80 80 80 81 79 79 80 80 80 80 79 80 79 80 79 78 77 79 80 80 78 77 78 78 78 79 79 80 81 79 79 78 78 80 79 79 78 78 81 78 78 78 79 78 77 79 80 79 78 77 75 74 73 72
71 70 70 70 69 68 73 79 79 80 80 80 79 80 80 80 80 80 80 80 80 81 80 79 79 78 79 79 78 78 78 78 79 79 78 78 78 78 78 78 78 78 79 77 76 77 77 77 78 77 77 79 77 77 78 80 77 76 76 75 74 72
71 71 71 70 70 69 69 73 78 80 80 80 80 80 80 80 80 80 80 80 80 80 80 80 80 78 78 79 78 78 78 79 79 79 79 78 77 77 77 77 77 78 77 76 78 77 78 77 77 79 76 76 77 78 78 77 77 77 76 75 74 74
70 70 70 70 69 69 69 69 70 75 79 80 80 80 79 80 81 81 80 79 80 80 80 80 80 79 77 78 78 78 78 79 79 79 78 77 78 77 77 77 77 78 75 78 78 77 76 75 76 76 76 75 75 75 76 76 75 76 76 76 75 74
68 70 70 70 70 70 70 70 70 70 70 75 79 80 80 80 80 80 80 80 79 79 79 79 80 80 77 78 79 78 79 78 78 77 78 76 77 77 76 77 76 77 76 74 79 79 75 75 75 75 75 74 75 75 75 75 75 75 77 75 74 74
69 70 70 69 69 69 69 69 69 69 69 69 76 78 80 81 80 80 80 79 79 79 79 80 80 79 77 79 79 79 78 78 78 76 76 76 75 76 76 76 75 76 76 76 75 76 75 75 76 75 74 74 73 74 75 74 75 75 75 75 74 73
70 70 69 69 69 69 69 69 69 69 69 69 68 73 79 80 80 80 80 79 80 79 79 80 79 79 77 78 78 78 77 77 77 76 75 75 75 75 75 75 75 75 76 78 75 76 76 74 75 74 74 73 73 73 74 74 74 74 74 75 74 76
70 70 69 69 68 67 67 68 67 67 67 67 67 67 69 76 79 80 80 80 80 78 79 79 80 79 77 77 77 78 77 77 77 76 75 74 74 75 74 74 74 77 76 77 78 77 76 74 73 72 71 72 73 73 74 74 74 74 73 73 73 73
70 70 69 68 67 66 66 66 67 67 66 67 67 68 67 68 74 79 81 81 80 78 79 79 79 79 77 77 77 77 77 77 77 76 75 74 75 76 75 75 74 74 74 74 74 76 75 75 72 69 71 70 70 73 73 73 73 73 73 73 72 71
70 70 70 69 68 67 67 67 66 65 66 66 66 67 66 67 67 71 78 80 79 79 79 79 78 79 78 77 76 77 77 76 76 75 75 76 76 76 76 75 75 73 75 74 72 76 75 74 69 67 65 66 68 70 71 71 72 73 73 72 72 72
71 71 70 70 70 69 67 68 68 67 67 67 69 69 70 69 69 68 69 73 78 79 79 79 79 79 78 78 77 76 76 76 76 76 74 74 74 74 74 74 74 73 71 73 73 75 74 74 68 69 68 66 63 63 67 69 70 72 73 72 72 72
71 72 71 71 71 71 70 70 69 69 69 69 67 68 69 69 70 69 69 70 71 76 79 79 80 80 79 78 77 76 77 76 76 76 75 74 74 74 73 73 74 74 73 70 73 73 74 74 73 69 63 64 64 64 60 63 65 69 72 72 71 72
72 72 72 72 71 72 70 69 69 70 69 68 68 67 67 67 68 69 68 68 69 70 77 79 79 80 80 78 77 77 77 76 76 76 76 75 74 74 74 74 75 73 73 71 71 71 73 74 73 74 68 65 63 62 62 65 66 66 70 70 72 72
73 73 73 72 72 71 70 68 68 66 65 65 64 65 64 65 65 66 67 69 69 71 71 76 79 79 80 79 77 77 77 77 76 75 75 75 75 74 75 75 75 74 73 73 72 71 70 72 74 73 73 70 71 65 63 67 66 60 68 71 70 73
74 73 73 71 70 69 67 68 69 68 67 66 65 66 68 69 67 67 69 67 68 69 70 73 77 79 79 79 78 77 77 77 77 76 76 75 74 74 76 77 76 75 74 74 73 70 70 70 72 73 74 73 72 72 73 68 62 64 61 65 70 70
73 74 72 72 69 69 68 68 68 68 69 68 67 67 67 68 69 68 68 68 69 70 71 71 77 79 80 79 78 77 77 77 77 78 77 75 75 75 76 77 75 75 75 74 73 70 70 71 69 70 72 71 71 73 74 73 70 67 64 61 64 70
73 73 71 71 69 69 69 68 66 67 67 68 69 68 69 69 68 69 68 67 68 70 73 75 78 79 79 80 78 77 77 77 77 77 77 76 76 77 76 75 74 74 73 73 73 72 71 70 71 69 69 69 70 71 72 72 73 73 66 63 62 64
75 73 69 67 66 67 69 69 67 65 65 67 68 68 68 68 68 68 67 67 67 68 68 71 75 79 79 80 79 78 78 78 77 77 76 77 76 76 76 75 75 74 74 73 72 72 71 71 72 71 72 70 69 69 69 70 70 70 70 69 63 64
75 73 66 66 65 63 65 67 65 66 65 66 67 66 66 66 66 66 66 66 66 66 67 68 69 74 78 80 79 79 78 78 78 77 77 77 76 77 76 75 75 75 74 73 73 72 72 72 72 71 72 71 70 70 69 68 68 69 68 66 65 65
73 74 64 66 64 64 66 66 66 66 65 66 68 68 66 66 67 66 66 65 66 66 66 68 69 71 76 78 78 78 78 78 77 77 77 77 77 77 77 77 76 75 74 74 74 73 72 71 71 71 71 71 71 72 71 70 72 71 69 69 67 66
72 75 67 63 64 64 65 65 65 65 64 65 68 68 68 67 67 67 67 66 66 65 66 66 67 70 74 76 77 76 76 76 76 76 77 78 77 78 77 76 76 75 75 74 74 73 72 71 72 71 71 72 72 72 72 72 73 72 72 72 69 65
73 73 74 69 64 63 63 64 64 65 66 65 65 64 66 67 68 68 69 68 66 66 67 68 69 71 76 77 77 77 77 77 77 77 77 77 77 78 77 76 75 74 74 74 74 74 73 72 72 72 73 72 72 72 72 73 73 73 72 70 67 66
72 73 74 71 71 69 67 66 64 64 64 64 64 63 64 66 67 68 70 70 70 69 68 72 72 74 77 77 77 78 78 77 77 77 77 77 77 74 71 71 71 71 74 74 74 73 73 73 73 73 73 72 72 73 72 73 72 73 73 70 69 68
72 73 73 73 71 70 69 70 70 67 62 64 64 65 66 67 66 66 67 69 71 71 71 72 74 76 76 77 77 77 78 76 77 78 75 73 69 68 68 67 67 67 69 73 71 73 73 74 73 73 73 73 73 73 73 73 74 72 73 71 69 69
72 73 73 73 73 71 70 70 70 71 68 66 66 67 67 67 68 67 67 66 70 71 72 71 70 68 70 70 69 67 68 69 70 71 70 70 71 70 69 68 67 66 67 69 69 70 72 73 73 74 73 74 73 73 73 74 74 74 74 72 71 71